Date,TemperatureHighF,TemperatureAvgF,TemperatureLowF,DewpointHighF,DewpointAvgF,DewpointLowF,HumidityHigh,HumidityAvg,HumidityLow,PressureMaxIn,PressureMinIn,WindSpeedMaxMPH,WindSpeedAvgMPH,GustSpeedMaxMPH,PrecipitationSumIn
2013-1-1,34,29,17,26,18,5,80,63,50,0.00,40.00,14,8,0,0.00
2013-1-2,26,16,7,8,4,-6,73,59,44,0.00,40.00,12,6,0,0.00
2013-1-3,23,12,3,3,-2,-5,70,55,37,0.00,40.00,10,7,0,0.00
2013-1-4,36,25,7,23,17,3,96,73,57,0.00,40.00,9,4,0,0.00
2013-1-5,37,30,17,24,19,15,92,65,43,0.00,40.00,11,5,0,0.00
2013-1-6,40,28,16,29,24,15,99,86,61,0.00,40.00,6,2,0,0.01
2013-1-7,37,26,14,27,24,14,100,91,65,0.00,40.00,4,2,0,0.00
2013-1-8,45,29,14,27,23,14,100,81,45,0.00,40.00,8,2,0,0.00
2013-1-9,41,31,20,33,27,20,100,86,61,0.00,40.00,12,2,0,0.00
2013-1-10,44,38,26,31,26,23,92,62,47,0.00,40.00,21,8,0,0.00
2013-1-11,38,30,21,37,27,21,100,90,67,0.00,40.00,5,2,0,0.09
2013-1-12,40,38,35,40,38,35,100,100,100,0.00,40.00,3,1,0,0.03
2013-1-13,49,42,39,49,42,39,100,100,100,0.00,40.00,4,2,0,0.01
2013-1-14,56,49,43,49,47,43,100,95,73,0.00,40.00,11,5,0,0.00
2013-1-16,31,30,28,31,30,28,100,100,100,0.00,40.00,2,1,0,0.00
2013-1-17,40,31,23,33,25,9,100,79,47,0.00,40.00,10,4,0,0.00
2013-1-18,26,18,13,9,-1,-8,59,43,34,0.00,40.00,14,7,0,0.54
2013-1-19,44,34,16,26,19,4,67,54,42,0.00,40.00,12,5,0,0.00
2013-1-20,51,40,29,31,25,12,74,57,34,0.00,40.00,25,11,0,0.00
2013-1-21,28,24,19,20,8,2,98,54,39,0.00,40.00,17,6,0,0.00
2013-1-22,24,20,14,19,9,0,91,65,38,0.00,40.00,14,5,0,0.00
2013-1-23,12,8,3,4,-3,-9,73,60,40,0.00,40.00,9,5,0,0.00
2013-1-24,15,11,9,-5,-17,-100,51,42,37,0.00,40.00,13,9,0,0.00
2013-1-25,20,13,7,-1,-3,-4,60,49,37,0.00,40.00,10,7,0,0.00
2013-1-26,24,16,10,13,4,-5,94,62,36,0.00,40.00,7,4,0,0.00
2013-1-27,28,19,13,6,2,-3,66,50,35,0.00,40.00,9,6,0,0.00
2013-1-28,27,20,11,23,9,-5,100,65,26,0.00,40.00,4,2,0,0.00
2013-1-29,35,28,23,32,26,22,100,91,73,0.00,40.00,2,1,0,0.04
2013-1-30,59,42,32,57,41,32,100,99,91,0.00,40.00,8,2,0,0.20
2013-1-31,59,42,31,58,26,10,100,56,41,0.00,40.00,14,11,0,0.08